This is the latest recevied weather packets stored in our database for station/object YF9UAG-15. If no packets are shown the sender has not sent any weather packets the latest 10 day(s).
| Time | Temp. | Humidity | Pressure | Rain* | Wind** | Luminosity | Snow |
|---|---|---|---|---|---|---|---|
| 1778197148 | 30° C | 100% | 1007.8 hPa | - | - | - | - |
| 1778197027 | 30.56° C | 100% | 1007.8 hPa | - | - | - | - |
| 1778196906 | 30.56° C | 100% | 1007.8 hPa | - | - | - | - |
| 1778196785 | 31.11° C | 100% | 1007.7 hPa | - | - | - | - |
| 1778196664 | 30° C | 100% | 1007.8 hPa | - | - | - | - |
| 1778196543 | 31.11° C | 100% | 1007.8 hPa | - | - | - | - |
| 1778196422 | 30.56° C | 100% | 1007.8 hPa | - | - | - | - |
| 1778196301 | 31.11° C | 100% | 1007.7 hPa | - | - | - | - |
| 1778196180 | 30.56° C | 100% | 1007.6 hPa | - | - | - | - |
| 1778196059 | 30° C | 100% | 1007.7 hPa | - | - | - | - |
| 1778195938 | 30.56° C | 100% | 1007.6 hPa | - | - | - | - |
| 1778195817 | 30° C | 100% | 1007.6 hPa | - | - | - | - |
| 1778195696 | 30° C | 100% | 1007.6 hPa | - | - | - | - |
| 1778195575 | 30.56° C | 100% | 1007.6 hPa | - | - | - | - |
| 1778195454 | 30° C | 100% | 1007.7 hPa | - | - | - | - |
| 1778195333 | 29.44° C | 100% | 1007.5 hPa | - | - | - | - |
| 1778195212 | 30° C | 100% | 1007.5 hPa | - | - | - | - |
| 1778195092 | 30° C | 100% | 1007.5 hPa | - | - | - | - |
| 1778194971 | 29.44° C | 100% | 1007.5 hPa | - | - | - | - |
| 1778194850 | 29.44° C | 100% | 1007.5 hPa | - | - | - | - |
| 1778194729 | 29.44° C | 100% | 1007.6 hPa | - | - | - | - |
| 1778194608 | 29.44° C | 100% | 1007.5 hPa | - | - | - | - |
| 1778194487 | 30° C | 100% | 1007.5 hPa | - | - | - | - |
| 1778194366 | 30° C | 100% | 1007.5 hPa | - | - | - | - |
| 1778194245 | 30° C | 100% | 1007.5 hPa | - | - | - | - |
* Rain since midnight (hover to see other rain measurements)
** Current wind speed in m/s (hover to see current wind gust speed)